Champaign, IL

9:10 PM CDT on July 22, 2017 (GMT -0500)
Univ Of Illinois-Willard

Weather History for KCMI - January, 2014

Change the Weather History Date:

Wednesday, January 22, 2014

  Actual Average Record
Temperature  
Mean Temperature 9 °F 25 °F  
Max Temperature 21 °F 34 °F 54 °F (2002)
Min Temperature -3 °F 17 °F -3 °F (2014)
Degree Days  
Heating Degree Days 56 40  
Month to date heating degree days 959 876  
Since 1 July heating degree days 3335 3157  
Cooling Degree Days 0 0  
Month to date cooling degree days 0 0  
Year to date cooling degree days 0 0  
Moisture  
Dew Point 6 °F    
Average Humidity 75    
Maximum Humidity 86    
Minimum Humidity 63    
Precipitation  
Precipitation T in 0.05 in 0.63 in (2012)
Month to date precipitation 0.66 1.58  
Year to date precipitation 0.66 1.58  
Sea Level Pressure  
Sea Level Pressure 30.10 in    
Wind  
Wind Speed 15 mph (West)    
Max Wind Speed 30 mph    
Max Gust Speed 37 mph    
Visibility 6 miles    
Events Fog , Snow    
T = Trace of Precipitation, MM = Missing Value Source: NWS Daily Summary

Daily Weather History Graph

Daily Weather History Graph

Search for Another Location

Airport or City:

Trip Planner

Search our weather history database for the weather conditions in past years. The results will help you decide how hot, cold, wet, or windy it might be!

Date:

Astronomy

Jan. 22, 2014 Rise Set
Actual Time 7:09 AM CST 5:00 PM CST
Civil Twilight 6:40 AM CST 5:29 PM CST
Nautical Twilight 6:07 AM CST 6:02 PM CST
Astronomical Twilight 5:35 AM CST 6:34 PM CST
Moon 11:32 PM CST (1/22) 10:10 AM CST (1/22)
Length of Visible Light 10h 49m
Length of Day
9h 50m
Waning Gibbous, 65% of the Moon is Illuminated
Jan 22
Waning Gibbous
Jan 23
Last Quarter
Jan 30
New
Feb 6
First Quarter
Feb 14
Full

Hourly Weather History & Observations

Time (CST) Temp. Windchill Dew Point Humidity Pressure Visibility Wind Dir Wind Speed Gust Speed Precip Events Conditions
12:53 AM -2.0 °F -10.1 °F -6.0 °F 83% 30.26 in 10.0 mi South 3.5 mph - N/A   Clear
1:53 AM -0.9 °F -8.9 °F -6.0 °F 79% 30.24 in 10.0 mi South 3.5 mph - N/A   Scattered Clouds
2:53 AM 1.9 °F -7.6 °F -4.0 °F 76% 30.19 in 10.0 mi SSE 4.6 mph - N/A   Mostly Cloudy
3:53 AM 3.9 °F -9.4 °F -2.0 °F 76% 30.16 in 10.0 mi SSE 8.1 mph - N/A   Overcast
4:53 AM 6.1 °F -6.8 °F -0.9 °F 73% 30.14 in 10.0 mi SSE 8.1 mph - N/A   Overcast
5:53 AM 6.1 °F -7.8 °F -2.0 °F 69% 30.13 in 10.0 mi SSE 9.2 mph - N/A   Overcast
6:53 AM 7.0 °F -9.1 °F -0.9 °F 70% 30.13 in 10.0 mi South 12.7 mph - N/A   Overcast
7:53 AM 7.0 °F -8.3 °F -0.0 °F 73% 30.12 in 10.0 mi South 11.5 mph - N/A   Overcast
8:53 AM 9.0 °F -6.6 °F 3.0 °F 77% 30.10 in 10.0 mi South 12.7 mph - N/A   Overcast
9:53 AM 10.9 °F -5.4 °F 5.0 °F 77% 30.09 in 10.0 mi South 15.0 mph - N/A   Overcast
10:53 AM 12.9 °F -3.4 °F 6.1 °F 74% 30.08 in 6.0 mi SSW 16.1 mph - 0.00 in Snow Light Snow
11:53 AM 15.1 °F -1.1 °F 9.0 °F 77% 30.04 in 5.0 mi SSW 17.3 mph - 0.00 in Snow Light Snow
12:53 PM 18.0 °F 3.1 °F 12.0 °F 78% 30.02 in 4.0 mi SW 16.1 mph - 0.00 in Snow Light Snow
1:53 PM 19.9 °F 6.2 °F 12.0 °F 71% 29.98 in 9.0 mi WSW 15.0 mph 24.2 mph 0.00 in   Overcast
2:53 PM 19.9 °F 3.9 °F 12.9 °F 74% 30.01 in 7.0 mi West 20.7 mph - 0.00 in Snow Light Snow
3:23 PM 19.4 °F 5.0 °F 14.0 °F 80% 29.96 in 4.0 mi West 16.1 mph - 0.00 in Snow Light Snow
3:36 PM 19.4 °F 5.5 °F 12.2 °F 74% 29.96 in 9.0 mi West 15.0 mph - 0.00 in Snow Light Snow
3:43 PM 19.4 °F 3.6 °F 12.2 °F 74% 29.97 in 10.0 mi West 19.6 mph 25.3 mph 0.00 in   Overcast
3:53 PM 19.9 °F 3.5 °F 12.0 °F 71% 30.02 in 10.0 mi West 21.9 mph - 0.00 in   Overcast
4:18 PM 19.4 °F 3.2 °F 12.2 °F 74% 30.00 in 10.0 mi West 20.7 mph 26.5 mph N/A   Overcast
4:45 PM 19.4 °F 2.5 °F 14.0 °F 80% 30.00 in 2.5 mi West 23.0 mph - 0.00 in Snow Light Snow
4:53 PM 19.9 °F 3.2 °F 14.0 °F 78% 30.05 in 2.0 mi West 23.0 mph - 0.00 in Snow Light Snow
5:05 PM 19.4 °F 2.5 °F 12.2 °F 74% 30.01 in 6.0 mi West 23.0 mph - 0.00 in Snow Light Snow
5:50 PM 17.6 °F -1.3 °F 12.2 °F 79% 30.04 in 2.5 mi NW 27.6 mph 36.8 mph 0.00 in Snow Light Snow
5:53 PM 17.1 °F -2.0 °F 12.0 °F 81% 30.09 in 1.5 mi WNW 27.6 mph 36.8 mph 0.00 in Snow Light Snow
5:58 PM 17.6 °F 0.5 °F 12.2 °F 79% 30.05 in 0.8 mi WNW 21.9 mph 34.5 mph 0.00 in Snow Light Snow
6:06 PM 17.6 °F -1.0 °F 12.2 °F 79% 30.06 in 1.0 mi WNW 26.5 mph 34.5 mph 0.00 in Snow Light Snow
6:11 PM 17.6 °F 0.1 °F 10.4 °F 73% 30.06 in 2.0 mi WNW 23.0 mph 34.5 mph 0.00 in Snow Light Snow
6:19 PM 15.8 °F -2.3 °F 8.6 °F 73% 30.07 in 7.0 mi NW 23.0 mph - 0.00 in Snow Light Snow
6:29 PM 15.8 °F -1.1 °F 5.0 °F 62% 30.07 in 10.0 mi NW 19.6 mph 29.9 mph 0.00 in   Mostly Cloudy
6:53 PM 14.0 °F -0.8 °F 3.9 °F 64% 30.12 in 10.0 mi NW 13.8 mph - 0.00 in   Clear
7:53 PM 12.9 °F -2.8 °F 6.1 °F 74% 30.14 in 9.0 mi WNW 15.0 mph - N/A   Overcast
8:53 PM 10.9 °F -3.4 °F 5.0 °F 77% 30.17 in 8.0 mi NW 11.5 mph - 0.00 in   Overcast
9:12 PM 12.2 °F -3.7 °F 6.8 °F 79% 30.13 in 10.0 mi NW 15.0 mph - N/A   Overcast
9:28 PM 12.2 °F -6.3 °F 6.8 °F 79% 30.14 in 3.0 mi NW 20.7 mph 25.3 mph 0.00 in Snow Light Snow
9:32 PM 12.2 °F -7.5 °F 6.8 °F 79% 30.14 in 1.8 mi NNW 24.2 mph 31.1 mph 0.00 in Snow Light Snow
9:35 PM 10.4 °F -11.0 °F 6.8 °F 85% 30.14 in 1.0 mi NNW 27.6 mph 33.4 mph 0.00 in Snow Light Snow
9:42 PM 8.6 °F -13.4 °F 5.0 °F 85% 30.15 in 0.5 mi NW 27.6 mph 34.5 mph 0.00 in Fog , Snow Light Snow
9:49 PM 8.6 °F -11.4 °F 1.4 °F 73% 30.15 in 1.0 mi NW 21.9 mph 34.5 mph 0.00 in Snow Light Snow
9:53 PM 8.1 °F -14.2 °F 1.9 °F 76% 30.21 in 2.0 mi NW 27.6 mph 33.4 mph 0.00 in Snow Blowing Snow
10:01 PM 6.8 °F -15.1 °F -0.4 °F 72% 30.16 in 3.0 mi NW 25.3 mph 33.4 mph N/A Snow Blowing Snow
10:53 PM 6.1 °F -13.8 °F -4.0 °F 63% 30.25 in 10.0 mi NW 19.6 mph 25.3 mph N/A   Clear
11:53 PM 3.9 °F -18.1 °F -4.0 °F 70% 30.28 in 10.0 mi NW 23.0 mph 28.8 mph N/A   Clear